Location: Erdweis
(48.5167°N, 15.3500°E)
Time: 11:36:35
(UTC+00:00)

X-37B - Pass Details

Date: 04 December 2020
Orbit: 384 x 390 km, 45.0° (Epoch: 02 January)

Event Time Altitude Azimuth Distance (km) Brightness Sun altitude
Rises 16:05:57 0° 253° (WSW) 2,260 6.7 -9.8°
Reaches altitude 10° 16:08:04 10° 247° (WSW) 1,408 5.1 -10.1°
Maximum altitude 16:11:05 42° 174° (S) 564 1.5 -10.6°
Enters shadow 16:13:42 13° 104° (ESE) 1,257 2.7 -11.0°
